Location: Gro�wechsungen
(51.4926°N, 10.6901°E)
Time: 14:23:29
(UTC+00:00)

Cosmos 2082 Rocket - Pass Details

Date: 20 January 2021
Orbit: 832 x 854 km, 71.0° (Epoch: 04 March)

Event Time Altitude Azimuth Distance (km) Brightness Sun altitude
Rises 17:47:43 0° 330° (NNW) 3,437 5.7 -18.4°
Reaches altitude 10° 17:50:40 10° 344° (NNW) 2,499 4.7 -18.9°
Enters shadow 17:55:18 24° 38° (NE) 1,689 3.4 -19.6°
